Powrót do katalogu

STARLINK-32475

AktywnyŁącznośćVLEO
NORAD 61728·PAYLOAD·🇺🇸 United States

Wystrzelony Oct 30, 2024 z Cape Canaveral Space Force Station

Loading…

Następne Przeloty (najbliższe 24 godziny)

TLE

ŚwieżeSource: CelesTrak SupGP

Epoka: Sep 15, 2026, 02:20 UTC

1 61728C 24196X   26258.09770833  .00035673  00000+0  10541-2 0  2580
2 61728  53.1590 298.9286 0001208  93.8360 237.5363 15.34368828    11

Śledź STARLINK-32475 w czasie rzeczywistym z AllMySat

Download on the App Store